Temp_Advection
nan nan nan nan nan nan nan nan nan nan nan nan nan nan nan nan nan nan nan nan nan nan nan nan nan nan nan nan nan nan nan nan nan nan nan nan nan nan nan nan nan nan nan nan nan
nan 0 0 -0 -0 -0 -0 -0 0 -0 -0 -0 -0 -0 -0 -0 -0 -1 -0 0 -0 0 -0 -0 -0 -0 -0 0 -0 -0 -0 -0 -0 -0 -0 0 0 0 0 0 -0 -0 -0 0 nan
nan -0 0 0 0 -0 -0 -0 -0 -0 -0 -0 -0 -0 -0 -0 -1 -0 -0 -0 -0 -0 -0 -0 0 -0 0 0 0 -0 -0 -0 -0 -0 -0 0 -0 0 0 -0 -1 -0 0 0 nan
nan -0 -0 0 0 -0 -0 -0 -0 0 -0 -0 -0 -0 -0 -0 -0 0 0 -0 -0 -0 -0 -0 -0 0 0 0 0 -0 0 -0 -0 0 0 0 -0 0 -0 -1 0 0 0 0 nan
nan -0 -0 -0 0 -0 -0 -0 -0 0 -0 -0 -0 -0 -0 -0 -1 -0 -0 -0 0 -0 -0 -0 -0 -0 -0 -0 0 0 -0 -0 -0 0 0 0 0 0 -1 -0 0 0 0 0 nan
nan -1 -0 -0 -0 0 0 -0 -0 -0 -0 -0 -0 0 0 -1 -1 -0 -0 -0 0 0 0 -0 -0 -0 -0 0 0 0 0 -0 -0 0 0 0 0 -0 -0 0 0 0 0 0 nan
nan -0 -1 -0 0 0 0 -0 -0 -0 -0 -0 -0 0 -1 -3 -0 -0 0 0 0 0 -0 -0 0 0 -0 -0 0 -0 -0 -0 -0 0 0 0 0 -0 -1 0 0 0 0 0 nan
nan -1 -0 -0 -0 0 0 -0 -0 0 0 -0 0 -0 -1 -1 -0 -0 0 0 0 0 0 0 0 0 0 -0 -0 -0 -0 -0 0 0 -0 0 0 -0 -0 0 0 0 0 0 nan
nan -1 -0 -1 -0 0 0 1 0 -0 -0 0 0 -0 -1 -1 -0 -0 -0 0 0 0 0 0 0 0 0 -0 -0 0 -0 0 -0 -0 0 0 -0 -0 0 0 -0 -0 0 0 nan
nan -1 -1 -1 -0 0 0 0 0 0 0 -0 -0 -0 -2 -0 -0 -0 0 0 0 0 1 0 0 -0 0 0 -0 -0 0 -0 -0 0 0 0 -0 -1 -0 0 -0 0 0 0 nan
nan -1 -0 -0 -0 0 0 -0 -0 -0 -1 -1 -1 -1 -0 0 0 0 0 0 0 0 0 0 0 -0 -0 0 0 0 0 0 -0 -0 0 0 -0 -1 1 1 -1 -1 -0 -0 nan
nan -2 -1 -0 -1 -1 0 -0 -1 -0 -0 -1 -0 -0 -0 0 0 0 0 0 0 0 0 -0 -0 -0 0 0 0 0 0 -0 0 0 0 -0 -0 -0 0 0 -0 -0 -1 -0 nan
nan -0 -1 -1 -1 -1 -0 -1 -0 0 -0 -0 0 -1 0 -0 0 0 0 0 -0 -0 0 0 -0 0 0 0 0 0 0 -0 0 0 0 -0 -0 -0 0 0 -1 -1 -1 0 nan
nan -0 0 -1 -2 -2 -1 -0 1 1 0 0 0 -1 -1 -0 -0 0 -0 0 0 -0 -0 -0 0 0 0 -0 0 -0 -0 -0 0 -0 0 0 -0 -0 -0 1 0 -1 -0 -0 nan
nan 0 0 -0 -1 -2 -1 1 1 1 0 -0 0 0 1 1 -0 1 1 0 -0 0 -0 -0 0 0 -0 -0 0 -0 -0 0 0 0 -0 -0 -0 -0 -0 -0 0 0 -0 0 nan
nan -1 0 0 -2 -2 -1 2 0 0 -1 0 0 1 1 1 1 0 1 1 -0 -0 0 0 -0 -0 -0 0 0 0 -0 -0 -0 0 -0 -0 0 -0 -0 -0 0 0 0 0 nan
nan -1 -0 -0 -2 -1 0 1 0 -0 0 0 0 -0 -0 0 0 0 0 0 1 -0 0 0 0 0 0 -0 -0 0 -0 0 0 -0 0 -0 0 -1 -0 0 -0 -0 0 0 nan
nan -1 -0 -0 -1 1 -0 -0 -0 -0 -0 0 -0 0 0 -0 0 0 1 -0 -0 0 -0 0 0 0 0 0 -0 0 0 0 0 0 0 -0 -1 -0 0 -0 0 0 -0 0 nan
nan 0 -0 -1 0 1 -1 -1 -0 -0 -0 -0 0 0 0 0 0 -0 0 -0 -0 0 -0 -0 -0 -0 0 0 -0 -0 0 0 -0 -0 -0 -0 -0 -0 0 0 0 0 0 0 nan
nan 0 -1 -1 1 0 -0 -1 -0 -0 -0 -0 -0 0 0 0 0 0 0 0 0 0 0 0 -0 0 0 -0 -0 0 0 -0 -0 -0 -0 -0 -0 -0 0 0 0 0 0 -0 nan
nan -0 -1 -0 0 0 -0 -1 -1 -2 0 -0 -0 -0 -0 0 0 0 -0 -0 -0 -0 0 -0 0 0 0 0 0 0 -0 0 -0 0 0 0 -0 0 -0 -0 0 -0 -0 -0 nan
nan -0 -0 0 -0 0 -1 -1 -1 -0 0 -0 -0 -0 -0 -0 -0 0 -0 -0 0 -1 -0 -0 0 0 -0 0 0 0 0 -0 0 0 0 -0 -0 -0 0 0 -0 -0 -0 -0 nan
nan -0 -0 -0 -0 -0 -1 -1 -0 -0 0 -0 -0 -0 -0 -0 -0 0 0 0 1 0 -0 -1 0 -0 0 0 -0 0 0 0 -0 -0 -0 -0 -0 -0 0 -0 -0 -0 -0 -0 nan
nan -0 -0 -1 -1 -1 -1 -1 -0 -1 0 -0 -0 -0 -0 -0 -0 0 0 0 0 0 1 -0 -0 -0 -0 -0 -0 -0 -0 -0 -0 -0 -0 -0 -1 -0 0 0 -0 -1 -0 0 nan
nan -0 -0 -0 -0 -0 -0 0 -0 0 0 0 0 0 -0 -0 -0 -0 0 0 0 0 0 1 -0 0 -0 0 0 -0 -0 0 0 -1 0 0 0 -1 -0 0 -0 -1 -1 0 nan
nan -0 -0 -0 -0 0 0 -0 -1 -0 -0 -0 -0 0 0 -0 -0 -1 -1 -0 -0 0 0 0 0 0 -0 0 0 0 0 0 0 0 0 -0 -1 -1 -1 0 -0 -1 1 0 nan
nan nan nan nan nan nan nan nan nan nan nan nan nan nan nan nan nan nan nan nan nan nan nan nan nan nan nan nan nan nan nan nan nan nan nan nan nan nan nan nan nan nan nan nan nan
Wind_Speed
26 23 22 19 18 19 19 17 15 14 13 13 13 13 13 14 12 12 14 8 4 7 8 11 7 4 5 3 3 3 3 2 3 4 2 1 2 4 3 4 5 5 4 5 11
28 27 24 22 20 20 20 19 19 18 15 15 15 13 13 14 14 16 11 9 8 7 9 10 10 5 4 3 2 3 2 6 4 3 3 3 3 6 4 3 5 7 9 9 11
28 29 29 24 23 21 21 21 21 19 18 15 15 13 12 12 14 3 4 12 11 10 9 9 9 6 4 3 3 3 3 4 3 5 3 1 2 4 5 4 11 10 11 12 15
29 29 30 28 24 23 21 21 21 20 18 16 15 13 12 8 4 3 2 10 14 11 12 10 6 6 4 3 3 2 3 5 2 3 2 3 3 4 8 11 10 10 10 12 17
28 29 30 29 27 24 22 22 21 20 19 16 15 13 11 8 16 9 5 7 16 13 14 11 8 6 5 5 4 3 3 6 6 7 7 6 9 8 12 14 13 12 12 15 17
26 30 30 27 29 26 23 22 21 20 18 16 14 12 10 7 9 9 13 6 18 15 14 12 5 6 5 4 4 2 1 3 4 8 8 5 5 5 6 10 15 16 15 18 18
24 26 32 33 31 27 23 22 21 19 17 15 13 13 15 23 10 7 9 8 17 15 12 13 8 6 6 4 2 3 2 5 5 2 5 4 6 9 21 16 13 16 17 18 18
24 23 26 27 27 26 21 20 20 18 15 13 12 11 13 11 15 19 11 10 14 13 12 9 8 5 1 8 5 3 4 2 2 3 2 6 7 6 4 13 16 17 19 19 18
23 21 23 29 27 28 23 18 15 14 13 11 10 9 13 11 20 16 19 11 11 13 10 9 9 5 5 5 3 5 2 3 6 4 2 3 6 3 2 9 15 18 21 21 19
31 24 18 26 23 28 21 16 15 13 11 9 10 4 19 7 10 10 21 16 7 13 9 7 4 3 2 3 5 4 3 4 4 3 2 4 11 14 23 16 16 17 22 23 22
24 33 21 13 28 26 25 20 9 7 20 16 14 12 2 11 7 9 18 20 13 11 6 5 3 7 8 7 4 5 4 5 4 4 2 6 10 14 21 15 21 26 26 27 26
22 25 32 21 14 28 35 35 28 5 7 36 18 24 11 7 8 11 16 16 9 5 7 3 8 8 6 4 4 3 4 5 5 2 4 6 10 15 14 20 21 28 32 31 27
24 22 27 32 22 30 39 40 29 15 2 6 40 35 16 19 7 16 21 15 6 6 7 7 3 10 7 4 5 3 4 4 6 3 3 5 7 6 5 11 21 25 30 33 34
24 24 24 23 28 16 30 40 25 21 2 6 9 14 23 11 9 14 24 18 3 12 8 5 5 5 4 5 7 5 7 4 4 2 3 2 5 6 10 11 6 18 24 30 33
24 24 23 23 19 19 18 43 25 25 6 8 10 10 26 22 14 17 24 14 9 7 7 8 8 6 4 7 7 8 6 5 2 3 2 1 4 6 5 9 12 8 19 26 30
25 25 21 24 26 30 21 42 27 7 10 6 10 10 9 13 12 12 15 13 8 6 0 8 4 7 10 3 8 8 5 5 3 2 3 7 6 3 5 4 4 2 8 16 24
26 24 24 24 31 36 13 35 5 6 6 8 8 10 9 8 7 8 11 8 9 7 5 2 3 4 5 5 2 4 5 2 2 1 5 2 2 10 12 7 6 10 13 10 21
28 23 28 29 22 34 29 9 6 8 8 3 7 12 13 7 8 8 13 14 5 5 5 8 5 8 4 8 8 7 9 5 6 4 3 2 5 6 6 7 9 11 12 10 20
22 23 29 31 24 26 11 11 8 7 8 7 7 9 5 5 7 5 9 17 18 9 10 6 7 1 4 5 9 5 4 4 4 1 0 4 6 9 5 5 4 6 5 12 20
19 19 30 26 23 20 7 9 6 5 12 9 7 5 8 13 7 12 11 9 8 9 9 7 2 3 3 5 4 7 8 3 1 4 5 3 4 6 7 8 8 4 7 10 18
16 9 11 14 22 14 8 9 9 16 15 9 7 6 7 9 8 12 14 2 16 11 9 6 4 1 4 6 9 3 3 3 4 4 4 2 4 5 5 6 7 7 7 9 17
17 5 9 12 9 4 12 7 8 11 19 4 5 5 9 9 6 8 12 9 19 22 18 8 5 4 7 2 4 5 8 11 7 4 2 1 6 5 6 6 7 8 5 6 10
12 9 17 17 9 10 10 17 9 12 14 6 4 4 4 9 5 5 8 6 18 15 18 9 5 4 2 2 2 4 5 4 4 3 7 6 5 0 3 6 10 9 3 2 7
7 3 12 24 25 17 21 18 16 28 13 6 5 5 6 6 3 9 8 4 18 14 24 22 4 12 11 4 6 5 6 7 9 4 6 7 9 15 10 5 8 8 7 10 10
2 5 5 4 13 16 18 14 25 13 7 12 1 9 8 6 4 5 5 3 3 5 7 7 6 5 6 6 6 8 8 13 11 16 11 11 11 15 14 10 18 21 24 14 13
5 4 5 2 5 13 16 16 29 22 18 21 6 8 7 9 8 9 10 5 7 3 6 2 3 7 7 7 8 6 8 8 14 5 8 7 10 13 15 20 18 23 25 23 20
6 16 10 7 9 7 10 25 27 22 14 25 18 9 7 10 17 18 15 16 14 11 6 8 6 4 6 4 3 7 11 10 5 6 9 8 17 6 6 10 23 22 18 19 18
Wind_Direction
266 267 274 279 273 270 269 268 271 286 294 295 298 303 306 305 294 277 261 248 222 209 186 185 203 182 156 152 130 129 72 175 206 168 218 249 153 158 160 165 196 211 214 209 193
259 264 266 271 271 269 268 269 269 277 286 292 294 299 305 309 301 277 263 244 225 204 188 189 201 199 174 157 142 100 125 208 206 203 218 180 190 175 174 182 227 232 236 229 212
252 255 261 261 266 268 267 265 270 274 282 282 287 293 301 309 313 296 216 225 218 202 186 173 189 207 179 164 168 151 181 202 236 232 218 220 252 201 178 233 236 236 244 234 217
252 255 251 257 258 264 266 263 265 270 277 278 282 284 293 297 271 154 21 208 204 196 185 177 191 184 157 172 169 149 216 180 262 232 206 225 241 255 222 254 272 264 248 222 210
251 249 255 248 257 257 262 262 260 264 270 276 274 276 284 269 251 250 303 215 200 201 199 181 178 170 174 172 151 161 210 202 243 268 253 259 253 251 253 265 257 247 231 216 208
255 246 247 251 252 254 255 259 258 259 264 271 266 269 271 252 265 251 255 240 199 205 209 199 198 199 160 168 171 187 215 283 271 259 257 229 264 234 258 252 246 239 225 214 218
260 253 245 244 246 246 248 252 256 255 257 264 258 264 261 250 255 247 220 215 197 203 212 207 207 177 160 137 141 92 350 339 267 266 240 232 284 236 256 251 235 227 220 216 221
256 253 251 243 251 243 244 250 250 252 251 255 249 263 258 267 245 232 206 197 200 200 202 207 213 191 174 128 49 62 49 352 288 146 323 170 270 273 269 229 229 222 221 221 224
259 254 245 235 241 241 237 244 242 244 242 241 239 236 267 246 245 232 212 198 203 199 190 203 190 154 134 101 38 17 246 229 307 205 138 164 277 267 315 240 249 236 226 226 228
259 264 260 232 241 245 224 225 229 234 222 209 214 230 246 229 232 225 206 200 191 187 172 179 159 105 81 129 208 198 219 259 251 223 191 226 258 277 274 253 251 248 229 225 227
276 254 263 233 228 238 210 198 191 213 203 196 204 203 199 209 209 208 200 198 194 169 158 157 138 198 187 192 155 152 177 237 243 259 222 242 260 266 276 247 248 245 234 227 226
274 277 254 267 252 231 215 198 205 184 212 220 224 224 213 175 179 194 188 177 173 170 119 78 214 208 173 144 145 157 179 254 282 227 187 286 271 271 255 258 242 241 236 231 223
271 272 283 261 273 226 210 211 211 202 253 228 223 227 224 212 212 196 186 186 144 137 183 181 218 164 154 149 173 201 186 222 238 333 230 311 276 287 282 260 264 249 248 237 225
274 275 277 294 276 283 223 207 193 181 247 247 197 231 214 198 225 200 195 183 160 180 159 216 203 143 170 187 158 217 209 219 233 31 260 16 285 300 273 271 244 253 239 234 225
272 274 270 280 258 277 230 212 180 149 197 218 185 198 196 189 149 199 198 190 159 167 143 216 168 157 160 206 161 226 161 187 191 188 343 282 276 266 283 278 274 278 253 233 224
278 270 266 263 255 245 280 198 147 133 220 206 147 167 133 189 172 145 175 190 169 121 107 186 188 169 192 159 170 147 92 55 56 101 250 227 204 275 261 228 298 264 330 232 215
281 264 254 251 250 238 270 143 141 205 155 186 175 168 160 158 168 155 162 172 167 156 166 145 203 195 148 112 80 114 97 300 299 221 247 113 157 248 266 273 254 285 304 244 209
281 262 245 247 247 240 262 200 173 191 205 109 143 140 181 130 203 164 155 188 244 123 147 168 217 173 190 164 171 184 169 171 223 218 276 104 231 247 231 274 265 285 280 236 201
287 253 240 238 235 243 263 215 190 163 160 138 75 133 162 187 137 138 183 196 191 171 165 157 232 209 185 150 151 173 168 186 108 75 9 235 282 286 292 290 274 277 244 202 195
292 251 244 236 241 227 221 234 238 208 150 165 145 161 166 173 136 175 168 192 183 176 151 194 152 208 182 102 43 160 161 113 26 213 238 260 260 241 293 299 309 270 239 206 195
280 244 260 244 216 194 221 227 233 248 157 158 154 146 164 169 152 181 192 245 178 184 158 138 118 250 117 201 167 137 170 63 137 162 206 235 252 216 252 290 295 297 260 217 203
263 232 218 201 195 181 220 226 226 213 206 162 115 119 155 158 143 176 191 206 188 162 185 181 138 163 202 268 198 166 189 190 206 209 229 215 260 225 257 281 304 299 284 222 214
298 235 228 210 216 205 224 226 217 202 197 182 147 139 162 151 143 177 180 205 169 167 174 178 185 128 10 351 321 191 188 165 119 88 189 218 258 234 278 309 290 275 281 263 227
281 228 221 215 234 204 203 213 201 214 181 181 149 108 118 145 15 178 168 187 180 177 181 174 150 199 209 198 143 182 189 185 187 176 204 219 255 274 270 264 274 243 289 276 259
264 277 232 208 206 211 205 199 197 193 151 204 38 179 154 131 112 148 137 116 130 181 149 141 186 176 216 187 174 191 188 194 197 216 214 236 222 248 258 254 261 268 290 279 267
262 278 288 247 184 196 201 217 198 202 168 207 203 182 164 154 178 180 143 171 173 162 146 170 200 158 227 209 198 218 226 208 206 214 246 257 270 240 260 251 261 266 275 277 274
271 290 305 279 201 183 200 203 202 191 197 193 194 144 168 189 174 188 168 164 159 147 152 145 132 118 237 173 123 270 209 200 189 194 203 203 237 229 232 219 240 255 266 269 259
Height
1532 1532 1533 1533 1532 1533 1534 1534 1533 1534 1533 1532 1531 1529 1529 1527 1526 1525 1525 1527 1527 1527 1528 1530 1531 1532 1532 1533 1533 1533 1541 1546 1541 1543 1536 1535 1535 1536 1537 1538 1539 1539 1539 1540 1540
1527 1528 1529 1529 1528 1530 1530 1530 1531 1532 1531 1530 1529 1527 1527 1525 1523 1522 1524 1525 1526 1526 1527 1529 1530 1531 1532 1532 1533 1533 1541 1540 1535 1535 1535 1535 1535 1536 1537 1537 1538 1538 1538 1538 1539
1522 1523 1524 1525 1526 1527 1526 1526 1527 1528 1528 1527 1527 1525 1525 1524 1522 1519 1519 1521 1524 1525 1526 1527 1530 1530 1531 1532 1532 1534 1537 1534 1534 1534 1534 1534 1534 1535 1535 1536 1534 1534 1535 1536 1537
1515 1517 1519 1520 1521 1522 1522 1522 1524 1524 1525 1524 1525 1524 1523 1523 1525 1517 1518 1518 1522 1524 1525 1525 1528 1530 1531 1532 1532 1534 1533 1534 1534 1534 1534 1535 1534 1533 1533 1531 1531 1532 1532 1533 1534
1509 1511 1512 1514 1516 1517 1518 1519 1520 1520 1522 1521 1522 1522 1521 1521 1516 1516 1517 1517 1519 1522 1524 1524 1525 1527 1529 1530 1531 1532 1532 1533 1533 1533 1533 1534 1533 1532 1528 1529 1529 1529 1530 1531 1532
1503 1504 1506 1508 1511 1512 1514 1515 1516 1517 1518 1519 1519 1519 1519 1520 1514 1513 1515 1516 1518 1520 1523 1523 1523 1525 1526 1528 1530 1530 1531 1531 1531 1531 1532 1532 1531 1531 1524 1524 1525 1526 1527 1528 1530
1497 1499 1500 1503 1505 1507 1509 1510 1511 1512 1515 1515 1516 1515 1514 1510 1512 1511 1512 1515 1516 1518 1521 1522 1523 1524 1526 1527 1529 1530 1532 1531 1528 1529 1530 1529 1530 1524 1521 1522 1522 1523 1524 1526 1527
1492 1492 1493 1497 1498 1499 1504 1505 1506 1508 1510 1511 1513 1513 1508 1507 1506 1508 1511 1513 1514 1516 1519 1521 1523 1523 1525 1527 1529 1533 1536 1538 1528 1528 1528 1530 1530 1518 1518 1519 1518 1519 1521 1523 1524
1486 1486 1486 1490 1494 1496 1497 1500 1502 1504 1507 1508 1511 1511 1506 1502 1500 1504 1508 1511 1512 1514 1517 1519 1522 1522 1525 1529 1535 1539 1540 1542 1532 1527 1527 1530 1527 1517 1516 1517 1516 1516 1517 1519 1520
1480 1480 1481 1483 1486 1490 1488 1495 1500 1502 1504 1507 1509 1513 1501 1496 1496 1499 1504 1509 1511 1512 1515 1518 1520 1523 1526 1530 1537 1537 1541 1541 1537 1528 1527 1528 1524 1515 1513 1514 1512 1513 1513 1514 1515
1475 1474 1475 1475 1479 1482 1484 1490 1498 1500 1497 1492 1491 1491 1490 1492 1496 1497 1500 1506 1509 1510 1514 1515 1522 1525 1521 1522 1524 1529 1534 1537 1531 1527 1528 1525 1521 1514 1509 1509 1506 1506 1506 1507 1509
1470 1469 1469 1469 1471 1473 1472 1473 1479 1485 1487 1486 1487 1488 1489 1490 1492 1494 1498 1504 1505 1509 1511 1518 1520 1515 1518 1522 1525 1528 1531 1533 1527 1525 1528 1523 1519 1507 1503 1497 1495 1495 1497 1499 1504
1464 1464 1464 1464 1464 1464 1462 1468 1475 1481 1484 1478 1478 1480 1484 1488 1488 1489 1494 1497 1500 1508 1510 1514 1512 1512 1516 1523 1526 1529 1531 1530 1530 1526 1525 1526 1517 1507 1495 1490 1488 1487 1487 1491 1494
1458 1459 1460 1459 1463 1459 1460 1462 1469 1477 1486 1475 1471 1469 1477 1483 1485 1485 1489 1492 1497 1502 1508 1511 1507 1511 1516 1519 1521 1530 1522 1523 1526 1529 1532 1526 1524 1510 1493 1485 1484 1482 1481 1482 1486
1452 1454 1456 1457 1456 1452 1459 1458 1462 1471 1484 1460 1458 1461 1462 1472 1474 1478 1484 1488 1493 1497 1502 1505 1507 1510 1515 1514 1516 1517 1518 1523 1523 1528 1532 1529 1531 1507 1495 1483 1476 1474 1475 1476 1480
1446 1447 1449 1450 1448 1449 1451 1449 1454 1470 1463 1446 1446 1451 1458 1462 1467 1473 1479 1484 1487 1493 1497 1497 1499 1502 1502 1506 1508 1512 1519 1526 1532 1534 1533 1522 1523 1510 1494 1479 1475 1473 1471 1472 1476
1438 1439 1442 1442 1437 1446 1444 1433 1456 1444 1432 1439 1440 1443 1446 1456 1466 1466 1474 1481 1485 1498 1502 1499 1499 1497 1497 1507 1510 1512 1521 1534 1533 1535 1524 1525 1529 1504 1478 1478 1474 1471 1470 1470 1473
1428 1430 1430 1431 1436 1440 1443 1434 1426 1431 1432 1423 1428 1438 1443 1450 1460 1463 1469 1475 1478 1480 1498 1500 1509 1496 1493 1496 1505 1513 1514 1526 1530 1529 1524 1527 1518 1488 1475 1471 1470 1469 1467 1468 1470
1421 1420 1421 1424 1432 1435 1439 1424 1403 1411 1416 1424 1431 1440 1447 1446 1450 1458 1463 1462 1464 1470 1482 1498 1498 1488 1488 1488 1492 1511 1515 1511 1523 1532 1530 1515 1501 1481 1470 1468 1466 1466 1465 1465 1467
1416 1414 1413 1420 1426 1430 1436 1419 1410 1401 1406 1413 1425 1430 1440 1441 1447 1451 1462 1452 1460 1462 1465 1481 1493 1488 1487 1487 1492 1493 1499 1513 1523 1521 1524 1512 1509 1490 1473 1470 1467 1465 1465 1465 1467
1411 1409 1407 1413 1422 1422 1418 1413 1409 1400 1395 1406 1415 1425 1429 1432 1438 1443 1448 1447 1446 1459 1462 1474 1480 1491 1488 1488 1490 1497 1500 1506 1507 1514 1507 1509 1497 1478 1474 1471 1468 1466 1465 1465 1466
1406 1405 1405 1408 1413 1411 1411 1404 1401 1399 1396 1396 1401 1411 1418 1426 1434 1439 1441 1437 1437 1444 1456 1463 1478 1491 1486 1480 1480 1483 1485 1485 1494 1511 1515 1511 1496 1471 1471 1470 1468 1466 1464 1464 1465
1402 1398 1400 1403 1393 1398 1400 1400 1396 1395 1392 1392 1399 1397 1409 1418 1430 1432 1434 1432 1435 1442 1449 1457 1472 1487 1487 1486 1484 1482 1485 1485 1491 1497 1504 1499 1488 1470 1469 1467 1466 1465 1465 1464 1464
1403 1390 1390 1390 1389 1385 1393 1392 1392 1388 1387 1391 1392 1394 1405 1414 1418 1428 1432 1432 1433 1436 1441 1446 1463 1459 1464 1467 1472 1480 1478 1479 1480 1495 1488 1489 1477 1467 1465 1466 1464 1462 1461 1462 1462
1399 1389 1381 1375 1374 1377 1380 1377 1383 1383 1384 1389 1390 1389 1396 1414 1418 1424 1427 1432 1435 1435 1441 1446 1459 1461 1461 1459 1464 1466 1467 1471 1476 1470 1476 1470 1476 1465 1458 1461 1459 1458 1457 1457 1457
1398 1391 1378 1374 1370 1371 1374 1375 1373 1374 1376 1382 1383 1388 1389 1399 1398 1416 1415 1422 1427 1436 1440 1445 1453 1457 1460 1460 1462 1463 1463 1465 1464 1467 1471 1471 1467 1454 1454 1453 1453 1452 1452 1452 1451
1390 1387 1383 1371 1364 1365 1364 1365 1363 1366 1368 1369 1377 1380 1387 1388 1389 1395 1400 1405 1411 1422 1436 1443 1452 1460 1461 1459 1464 1468 1457 1458 1461 1459 1456 1468 1450 1444 1447 1449 1447 1446 1447 1446 1447